{"data":{"norad_id":48056,"intl_designator":"2021-025Q","name":"ONEWEB-0162","alt_names":[],"object_type":"PAYLOAD","status":"ACTIVE","operator":null,"country":"UK","launch_date":"2021-03-25","launch_site_code":"VOSTO","launch_vehicle":null,"mission":null,"orbit_class":"UNKNOWN","rcs_meters":null,"size_class":null,"mass_kg":null,"dimensions":null,"purposes":["comms"],"wikipedia_slug":null,"has_3d_model":false,"image_url":null,"decayed_at":null,"tle_current":{"epoch":"2026-05-25T01:09:11.436192Z","epoch_age_seconds":85101,"freshness":"FRESH","line1":"1 48056U 21025Q   26145.04804903 -.00000065  00000+0 -21366-3 0  9992","line2":"2 48056  87.8945 324.8331 0001930  94.5706 265.5644 13.13467888250507","mean_motion":13.13467888,"eccentricity":0.000193,"inclination_deg":87.8945,"raan_deg":324.8331,"arg_perigee_deg":94.5706,"mean_anomaly_deg":265.5644,"bstar":-0.00021366,"rev_number":25050,"period_min":109.63343779898,"perigee_km":1208.3090671793,"apogee_km":1211.2380006454,"semimajor_km":7587.9105339124,"source":"CELESTRAK","updated_at":"2026-05-25T13:38:22.390364Z"}}}